Reading, PA

10:18 PM EST on November 13, 2019 (GMT -0500)
Reading Regional-Spaatz

Weather History for KRDG - September, 2019

Change the Weather History Date:

Wednesday, September 18, 2019

  Actual Average Record
Temperature  
Mean Temperature 63 °F 64 °F  
Max Temperature 73 °F 75 °F 94 °F (1991)
Min Temperature 53 °F 54 °F 39 °F (1990)
Degree Days  
Heating Degree Days 2 3  
Month to date heating degree days 5 18  
Since 1 July heating degree days 5 23  
Cooling Degree Days 0 2  
Month to date cooling degree days 104 69  
Year to date cooling degree days 1166 872  
Growing Degree Days 13 (Base 50)    
Moisture  
Dew Point 50 °F    
Average Humidity 66    
Maximum Humidity 93    
Minimum Humidity 41    
Precipitation  
Precipitation 0.00 in 0.16 in 3.36 in (2004)
Month to date precipitation 1.78 2.34  
Year to date precipitation 42.00 31.30  
Sea Level Pressure  
Sea Level Pressure 30.23 in    
Wind  
Wind Speed 5 mph ()    
Max Wind Speed 13 mph    
Max Gust Speed 17 mph    
Visibility 10.0 miles    
Events      
T = Trace of Precipitation, MM = Missing Value Source: Averaged Metar Reports

Daily Weather History Graph

Daily Weather History Graph

Search for Another Location

Airport or City:

Astronomy

Sep. 18, 2019 Rise Set
Actual Time 6:47 AM EDT 7:08 PM EDT
Civil Twilight 6:20 AM EDT 7:35 PM EDT
Nautical Twilight 5:47 AM EDT 8:07 PM EDT
Astronomical Twilight 5:15 AM EDT 8:39 PM EDT
Moon 9:40 PM EDT (9/18) 10:48 AM EDT (9/18)
Length of Visible Light 13h 15m
Length of Day
12h 20m
Waning Gibbous, 82% of the Moon is Illuminated
Sep 18
Waning Gibbous
Sep 21
Last Quarter
Sep 28
New
Oct 5
First Quarter
Oct 13
Full

Hourly Weather History & Observations

Time (EDT) Temp. Dew Point Humidity Pressure Visibility Wind Dir Wind Speed Gust Speed Precip Events Conditions
12:54 AM 57.0 °F 52.0 °F 83% 30.16 in 10.0 mi North 5.8 mph - N/A   Clear
1:54 AM 57.0 °F 50.0 °F 77% 30.17 in 10.0 mi NNW 3.5 mph - N/A   Clear
2:54 AM 57.0 °F 50.0 °F 77% 30.17 in 10.0 mi NNW 4.6 mph - N/A   Clear
3:54 AM 55.9 °F 51.1 °F 84% 30.18 in 10.0 mi North 3.5 mph - N/A   Clear
4:54 AM 53.1 °F 51.1 °F 93% 30.18 in 10.0 mi NNW 3.5 mph - N/A   Clear
5:54 AM 54.0 °F 50.0 °F 86% 30.19 in 10.0 mi North 5.8 mph - N/A   Clear
6:54 AM 54.0 °F 48.9 °F 83% 30.22 in 10.0 mi NNW 4.6 mph - N/A   Clear
7:54 AM 55.9 °F 51.1 °F 84% 30.24 in 10.0 mi North 5.8 mph - N/A   Clear
8:54 AM 60.1 °F 50.0 °F 69% 30.25 in 10.0 mi NNE 6.9 mph - N/A   Clear
9:54 AM 63.0 °F 52.0 °F 67% 30.25 in 10.0 mi North 8.1 mph - N/A   Clear
10:54 AM 66.0 °F 54.0 °F 65% 30.25 in 10.0 mi NE 8.1 mph - N/A   Clear
11:54 AM 69.1 °F 54.0 °F 58% 30.24 in 10.0 mi Variable 3.5 mph - N/A   Scattered Clouds
12:54 PM 70.0 °F 51.1 °F 51% 30.24 in 10.0 mi NE 8.1 mph - N/A   Partly Cloudy
1:54 PM 72.0 °F 50.0 °F 46% 30.23 in 10.0 mi Variable 4.6 mph - N/A   Scattered Clouds
2:54 PM 73.0 °F 48.0 °F 41% 30.22 in 10.0 mi NE 9.2 mph - N/A   Scattered Clouds
3:54 PM 73.0 °F 48.0 °F 41% 30.22 in 10.0 mi NE 11.5 mph - N/A   Partly Cloudy
4:54 PM 72.0 °F 48.0 °F 43% 30.22 in 10.0 mi Variable 4.6 mph - N/A   Partly Cloudy
5:54 PM 71.1 °F 46.9 °F 42% 30.22 in 10.0 mi Variable 6.9 mph - N/A   Clear
6:54 PM 68.0 °F 48.0 °F 49% 30.23 in 10.0 mi ESE 3.5 mph - N/A   Clear
7:54 PM 64.9 °F 48.9 °F 56% 30.25 in 10.0 mi ESE 3.5 mph - N/A   Clear
8:54 PM 62.1 °F 51.1 °F 67% 30.26 in 10.0 mi NE 3.5 mph - N/A   Clear
9:54 PM 59.0 °F 53.1 °F 81% 30.28 in 10.0 mi Calm Calm - N/A   Clear
10:54 PM 61.0 °F 51.1 °F 70% 30.30 in 10.0 mi ESE 3.5 mph - N/A   Clear
11:54 PM 60.1 °F 51.1 °F 72% 30.31 in 10.0 mi ESE 8.1 mph - N/A   Clear